Powrót do katalogu

STARLINK-34252

AktywnyŁącznośćVLEO
NORAD 64330·PAYLOAD·🇺🇸 United States

Wystrzelony Jun 10, 2025 z Cape Canaveral Space Force Station

Loading…

Następne Przeloty (najbliższe 24 godziny)

TLE

ŚwieżeSource: CelesTrak SupGP

Epoka: Sep 14, 2026, 22:48 UTC

1 64330C 25124P   26257.95048611 -.00100370  00000+0 -36387-2 0  2574
2 64330  42.9992 133.0467 0001236 272.4114  77.6310 15.27598743    16

Śledź STARLINK-34252 w czasie rzeczywistym z AllMySat

Download on the App Store